Location: Akdamlar
(36.8729°N, 30.5187°E)
Time: 19:34:55
(UTC+00:00)

Resurs 01 Rocket - Pass Details

Date: 18 September 2020
Orbit: 633 x 645 km, 98.0° (Epoch: 26 October)

Event Time Altitude Azimuth Distance (km) Brightness Sun altitude
Exits shadow 19:19:15 15° 322° (NW) 1,716 4.4 -37.9°
Drops below altitude 10° 19:20:11 10° 329° (NNW) 2,047 4.9 -38.0°
Sets 19:22:34 0° 338° (NNW) 2,961 5.8 -38.4°
